Hillsboro, TX

10:05 PM CDT on April 19, 2018 (GMT -0500)
Hillsboro

Weather History for KINJ - January, 2013

Change the Weather History Date:

Tuesday, January 15, 2013

  Actual Average (KACT) Record (KACT)
Temperature  
Mean Temperature 34 °F -  
Max Temperature 37 °F 57 °F 80 °F (1950)
Min Temperature 32 °F 36 °F 17 °F (1905)
Degree Days  
Heating Degree Days 30    
Moisture  
Dew Point 29 °F    
Average Humidity 84    
Maximum Humidity 100    
Minimum Humidity 56    
Precipitation  
Precipitation 0.06 in - - ()
Sea Level Pressure  
Sea Level Pressure 30.18 in    
Wind  
Wind Speed 11 mph (North)    
Max Wind Speed 16 mph    
Max Gust Speed 22 mph    
Visibility 8 miles    
Events Rain , Snow , Thunderstorm    
Averages and records for this station are not official NWS values.
T = Trace of Precipitation, MM = Missing Value Source: NWS Daily Summary

Daily Weather History Graph

Daily Weather History Graph

Search for Another Location

Airport or City:

Astronomy

Jan. 15, 2013 Rise Set
Actual Time 7:29 AM CST 5:46 PM CST
Civil Twilight 7:02 AM CST 6:13 PM CST
Nautical Twilight 6:32 AM CST 6:43 PM CST
Astronomical Twilight 6:03 AM CST 7:12 PM CST
Moon 9:53 AM CST (1/15) 10:17 PM CST (1/15)
Length of Visible Light 11h 10m
Length of Day
10h 17m
Waxing Crescent, 19% of the Moon is Illuminated
Jan 15
Waxing Crescent
Jan 18
First Quarter
Jan 26
Full
Feb 3
Last Quarter
Feb 10
New

Hourly Weather History & Observations

Time (CST) Temp. Windchill Dew Point Humidity Pressure Visibility Wind Dir Wind Speed Gust Speed Precip Events Conditions
12:15 AM 37.4 °F 28.5 °F 24.8 °F 60% 30.16 in 10.0 mi NE 15.0 mph 20.7 mph N/A   Overcast
12:35 AM 37.4 °F 29.3 °F 24.8 °F 60% 30.15 in 10.0 mi NE 12.7 mph 19.6 mph N/A   Overcast
12:55 AM 35.6 °F 27.1 °F 24.8 °F 65% 30.14 in 10.0 mi NNE 12.7 mph 19.6 mph N/A   Overcast
1:15 AM 35.6 °F 28.0 °F 24.8 °F 65% 30.15 in 10.0 mi NNE 10.4 mph - N/A   Overcast
1:35 AM 37.4 °F 32.1 °F 23.0 °F 56% 30.18 in 10.0 mi North 6.9 mph - N/A   Overcast
1:55 AM 35.6 °F 28.0 °F 24.8 °F 65% 30.17 in 10.0 mi North 10.4 mph - N/A   Overcast
2:15 AM 35.6 °F 28.0 °F 24.8 °F 65% 30.18 in 10.0 mi North 10.4 mph - N/A   Overcast
2:35 AM 35.6 °F 27.5 °F 26.6 °F 70% 30.17 in 10.0 mi North 11.5 mph - N/A   Overcast
2:55 AM 35.6 °F 28.6 °F 24.8 °F 65% 30.17 in 10.0 mi North 9.2 mph - N/A   Overcast
3:15 AM 35.6 °F 28.6 °F 24.8 °F 65% 30.16 in 10.0 mi North 9.2 mph - N/A   Overcast
3:35 AM 35.6 °F 27.5 °F 24.8 °F 65% 30.17 in 10.0 mi North 11.5 mph 16.1 mph N/A   Overcast
3:55 AM 35.6 °F 26.6 °F 24.8 °F 65% 30.15 in 10.0 mi North 13.8 mph - N/A   Overcast
5:15 AM 32.0 °F 23.6 °F 26.6 °F 80% 30.14 in 7.0 mi NNE 10.4 mph - N/A Rain Light Rain
5:35 AM 32.0 °F 24.8 °F 26.6 °F 80% 30.15 in 10.0 mi North 8.1 mph - 0.01 in Rain , Thunderstorm Light Thunderstorms and Rain
5:55 AM 32.0 °F 24.2 °F 28.4 °F 87% 30.17 in 5.0 mi North 9.2 mph 16.1 mph 0.02 in Snow , Thunderstorm Light Thunderstorms and Snow
6:15 AM 32.0 °F 23.0 °F 28.4 °F 87% 30.18 in 5.0 mi North 11.5 mph - 0.03 in Snow , Thunderstorm Thunderstorms and Snow
6:35 AM 32.0 °F 23.6 °F 28.4 °F 87% 30.17 in 7.0 mi North 10.4 mph 17.3 mph 0.04 in Rain , Thunderstorm Rain
6:55 AM 32.0 °F 22.5 °F 28.4 °F 87% 30.15 in 4.0 mi North 12.7 mph 17.3 mph 0.04 in   Light Drizzle
7:15 AM 32.0 °F 24.2 °F 28.4 °F 87% 30.16 in 5.0 mi North 9.2 mph - N/A   Light Drizzle
7:35 AM 32.0 °F 24.8 °F 28.4 °F 87% 30.17 in 7.0 mi North 8.1 mph - N/A   Overcast
7:55 AM 32.0 °F 24.8 °F 28.4 °F 87% 30.18 in 4.0 mi NNE 8.1 mph - N/A   Drizzle
8:15 AM 32.0 °F 24.2 °F 28.4 °F 87% 30.18 in 4.0 mi NNE 9.2 mph - N/A   Light Drizzle
8:35 AM 32.0 °F 23.0 °F 28.4 °F 87% 30.18 in 4.0 mi NNE 11.5 mph 17.3 mph N/A   Overcast
8:55 AM 32.0 °F 24.2 °F 28.4 °F 87% 30.19 in 5.0 mi NNE 9.2 mph - N/A   Overcast
9:15 AM 32.0 °F 23.6 °F 30.2 °F 93% 30.20 in 7.0 mi North 10.4 mph - N/A   Overcast
9:35 AM 32.0 °F 24.8 °F 30.2 °F 93% 30.20 in 10.0 mi North 8.1 mph - N/A   Overcast
9:55 AM 32.0 °F 24.8 °F 30.2 °F 93% 30.20 in 5.0 mi North 8.1 mph - N/A   Overcast
10:15 AM 32.0 °F 24.2 °F 30.2 °F 93% 30.19 in 2.5 mi North 9.2 mph - N/A   Overcast
10:35 AM 32.0 °F 26.4 °F 30.2 °F 93% 30.19 in 2.5 mi North 5.8 mph - N/A   Overcast
10:55 AM 32.0 °F 23.6 °F 30.2 °F 93% 30.19 in 2.5 mi North 10.4 mph - N/A   Overcast
11:15 AM 32.0 °F 24.8 °F 30.2 °F 93% 30.19 in 2.5 mi North 8.1 mph - N/A   Overcast
11:35 AM 32.0 °F 24.8 °F 30.2 °F 93% 30.19 in 2.5 mi North 8.1 mph - N/A   Overcast
11:55 AM 32.0 °F 24.2 °F 30.2 °F 93% 30.18 in 2.5 mi North 9.2 mph - N/A   Overcast
12:15 PM 32.0 °F 24.2 °F 30.2 °F 93% 30.17 in 1.8 mi NNW 9.2 mph - N/A   Overcast
12:35 PM 32.0 °F 23.6 °F 32.0 °F 100% 30.16 in 1.5 mi NNW 10.4 mph - N/A Rain Light Rain
12:55 PM 32.0 °F 24.2 °F 32.0 °F 100% 30.16 in 1.8 mi NNW 9.2 mph - N/A   Overcast
1:35 PM 33.8 °F 26.4 °F 32.0 °F 93% 30.15 in 2.5 mi NNW 9.2 mph - N/A   Overcast
1:55 PM 33.8 °F 25.3 °F 32.0 °F 93% 30.14 in 2.5 mi NNW 11.5 mph - N/A   Overcast
2:15 PM 33.8 °F 24.8 °F 32.0 °F 93% 30.15 in 2.5 mi NNW 12.7 mph 18.4 mph N/A   Overcast
2:35 PM 33.8 °F 24.3 °F 32.0 °F 93% 30.14 in 4.0 mi NNW 13.8 mph - N/A   Overcast
2:55 PM 33.8 °F 23.9 °F 32.0 °F 93% 30.14 in 5.0 mi NNW 15.0 mph 21.9 mph N/A   Overcast
3:15 PM 33.8 °F 23.9 °F 32.0 °F 93% 30.15 in 10.0 mi NNW 15.0 mph - N/A   Overcast
3:35 PM 33.8 °F 24.8 °F 32.0 °F 93% 30.16 in 10.0 mi NNW 12.7 mph - N/A   Overcast
3:55 PM 33.8 °F 23.9 °F 32.0 °F 93% 30.16 in 10.0 mi NNW 15.0 mph 19.6 mph N/A   Overcast
4:15 PM 33.8 °F 24.3 °F 32.0 °F 93% 30.16 in 10.0 mi NNW 13.8 mph 19.6 mph N/A   Overcast
4:35 PM 35.6 °F 25.9 °F 32.0 °F 87% 30.15 in 10.0 mi NNW 16.1 mph - N/A   Overcast
4:55 PM 35.6 °F 25.9 °F 32.0 °F 87% 30.17 in 10.0 mi NNW 16.1 mph - N/A   Overcast
5:35 PM 35.6 °F 28.0 °F 32.0 °F 87% 30.21 in 10.0 mi NW 10.4 mph - N/A   Overcast
5:55 PM 35.6 °F 28.6 °F 32.0 °F 87% 30.20 in 10.0 mi NNW 9.2 mph - N/A   Overcast
6:15 PM 35.6 °F 28.0 °F 30.2 °F 81% 30.20 in 10.0 mi NNW 10.4 mph - N/A   Overcast
6:35 PM 35.6 °F 28.0 °F 30.2 °F 81% 30.20 in 10.0 mi NNW 10.4 mph - N/A   Overcast
6:55 PM 35.6 °F 27.5 °F 30.2 °F 81% 30.21 in 10.0 mi NNW 11.5 mph - N/A   Overcast
7:15 PM 35.6 °F 28.6 °F 30.2 °F 81% 30.21 in 10.0 mi NNW 9.2 mph - N/A   Overcast
7:35 PM 35.6 °F 28.6 °F 30.2 °F 81% 30.22 in 10.0 mi NNW 9.2 mph - N/A   Overcast
7:55 PM 35.6 °F 28.0 °F 30.2 °F 81% 30.22 in 10.0 mi NNW 10.4 mph - N/A   Overcast
8:15 PM 35.6 °F 29.2 °F 30.2 °F 81% 30.23 in 10.0 mi NNW 8.1 mph - N/A   Overcast
8:35 PM 33.8 °F 28.6 °F 30.2 °F 87% 30.23 in 10.0 mi NNW 5.8 mph - N/A   Mostly Cloudy
8:55 PM 33.8 °F 28.6 °F 28.4 °F 81% 30.23 in 10.0 mi NNW 5.8 mph - N/A   Mostly Cloudy
9:15 PM 33.8 °F 27.7 °F 30.2 °F 87% 30.21 in 10.0 mi NNW 6.9 mph - N/A   Scattered Clouds
9:35 PM 33.8 °F 26.4 °F 28.4 °F 81% 30.20 in 10.0 mi North 9.2 mph - N/A   Clear
9:55 PM 33.8 °F 25.8 °F 28.4 °F 81% 30.21 in 10.0 mi NNW 10.4 mph - N/A   Clear
10:15 PM 32.0 °F 24.2 °F 28.4 °F 87% 30.21 in 10.0 mi NNW 9.2 mph - N/A   Clear
10:35 PM 32.0 °F 24.2 °F 28.4 °F 87% 30.21 in 10.0 mi NNW 9.2 mph - N/A   Clear
10:55 PM 32.0 °F 24.2 °F 28.4 °F 87% 30.22 in 10.0 mi NW 9.2 mph - N/A   Clear
11:15 PM 32.0 °F 24.8 °F 26.6 °F 80% 30.22 in 10.0 mi NNW 8.1 mph - N/A   Clear
11:35 PM 32.0 °F 25.6 °F 26.6 °F 80% 30.22 in 10.0 mi NNW 6.9 mph - N/A   Clear